カタリナ彗星

367P/Catalina (2018)

English version
Home page
Updated on June 15, 2021

---------------------------------------------------------------------

・ プロフィール

符号 367P/2018 H1
検出日 2018年4月17日
検出光度 21.0等
検出者 E. Schwab (Egelsbach, Germany)

・ 写真集

・ 軌道要素

Epoch 2018 June 11.0 TT = JDT 2458280.5
T 2018 June 22.32480 TT                                 MPCW
q   2.5217191            (2000.0)            P               Q
n   0.14991495     Peri.  173.11438     -0.61679400     +0.77700601
a   3.5094529      Node    58.72194     -0.72901090     -0.50363990
e   0.2814495      Incl.    8.46464     -0.29683037     -0.37763543
P   6.57
From 123 observations 2011 Feb. 10-2018 Apr. 20, mean residual 0".6.

・ 光度変化

        H = 17.5  G = 0.15

        ※ 灰色の曲線は、H = 15.0  G = 0.15 の光度曲線です。

---------------------------------------------------------------------

軌道要素はM.P.E.C. 2018-U70に掲載されたものです。
光度グラフはComet for Windowsで作成したものです。

---------------------------------------------------------------------

Copyright(C) Seiichi Yoshida (comet@aerith.net). All rights reserved.